Temp_Advection
nan nan nan nan nan nan nan nan nan nan nan nan nan nan nan nan nan nan nan nan nan nan nan nan nan nan nan nan nan nan nan nan nan nan nan nan nan nan nan nan nan nan
nan -1 -1 -1 -1 -1 -1 -1 -1 -1 -1 -1 -1 -1 -1 -1 -1 -1 -1 -1 -1 -1 -1 -1 -1 -1 -2 -1 -1 -1 -1 -1 -1 -1 -2 -1 -1 -1 -1 -1 -0 nan
nan -1 -1 -1 -1 -1 -1 -1 -1 -1 -1 -1 -1 -1 -2 -2 -2 -1 -1 -2 -2 -1 -1 -1 -1 -1 -1 -1 -1 -1 -1 -1 -1 -1 -1 -1 -1 -2 -1 -1 -1 nan
nan -1 -1 -1 -1 -1 -1 -1 -1 -1 -1 -1 -1 -1 -1 -1 -1 -1 -1 -1 -2 -2 -1 -1 -1 -1 -1 -1 -1 -2 -1 -1 -1 -1 -1 -1 -1 -1 -1 -1 -2 nan
nan -1 -1 -1 -1 -1 -1 -1 -1 -1 -1 -1 -1 -1 -1 -1 -1 -1 -1 -1 -2 -2 -2 -1 -1 -1 -1 -1 -1 -1 -2 -1 -1 -1 -1 -1 -0 -1 -1 -1 -2 nan
nan -1 -1 -1 -1 -1 -0 -1 -1 -1 -1 -1 -1 -1 -1 -1 -1 -1 -1 -1 -2 -2 -2 -2 -2 -2 -1 -2 -1 -1 -1 -2 -1 -1 -2 -1 -1 -1 -0 -1 -1 nan
nan -0 -0 -1 -1 -1 -0 -0 -1 -1 -1 -1 -1 -1 -1 -2 -1 -1 -1 -1 -1 -2 -2 -2 -2 -2 -2 -2 -2 -2 -2 -2 -1 -1 -2 -2 -2 -1 -1 -1 -1 nan
nan -0 -0 -0 -0 -0 -0 -0 -0 -1 -1 -1 -1 -1 -1 -1 -2 -2 -1 -2 -2 -1 -2 -2 -1 -1 -1 -2 -2 -2 -2 -1 -1 -2 -2 -2 -2 -2 -1 -1 -2 nan
nan -0 -0 -0 -0 -1 -0 -0 -0 -1 -1 -1 -1 -1 -1 -1 -1 -1 -1 -1 -2 -2 -1 -1 -1 -1 -1 -1 -1 -2 -2 -1 -1 -1 -2 -1 -2 -2 -1 -1 -2 nan
nan -1 -1 -1 -1 -1 -1 -1 -1 -1 -1 -1 -1 -1 -1 -1 -0 -1 -1 -1 -1 -1 -1 -1 -1 -1 -1 -1 -1 -1 -1 -1 -1 -1 -1 -1 -1 -1 -1 -1 -2 nan
nan -1 -1 -1 -1 -1 -1 -1 -1 -1 -1 -1 -1 -1 -1 -0 -1 -0 -1 -1 -1 -1 -1 -1 -1 -1 -1 -1 -1 -1 -1 -1 -1 -1 -1 -1 -1 -0 0 -0 -1 nan
nan -1 -2 -1 -1 -1 -1 -1 -1 -1 -1 -1 -1 -1 -1 -1 -1 -1 -1 -1 -1 -1 -1 -1 -1 -1 -1 -1 -1 -1 -1 -1 -1 -1 -1 -0 -0 -0 0 1 -0 nan
nan -1 -1 -1 -1 -1 -1 -1 -1 -1 -1 -1 -1 -1 -1 -1 -1 -1 -1 -1 -1 -1 -1 -1 -1 -1 -1 -1 -1 -0 -1 -1 -1 -1 -1 -0 -0 -0 0 1 0 nan
nan -1 -1 -1 -0 -0 -0 -1 -1 -1 -1 -1 -1 -1 -1 -1 -1 -1 -1 -1 -1 -1 -1 -0 -1 -1 -1 -1 -1 -1 -1 -1 -1 -1 -1 -1 -1 -1 -1 0 1 nan
nan -0 -0 -0 -0 -0 -0 -0 -0 -0 -0 -0 -0 -0 -0 -0 -0 -1 -1 -1 -1 -1 -0 -0 -1 -1 -0 -0 -1 -1 -1 -2 -1 -1 -1 -1 -1 -1 -2 -2 -1 nan
nan -0 -0 -0 -0 -0 -0 -1 -1 -0 -1 -1 -0 -0 -0 -0 -0 -0 -0 -1 -1 -1 -1 -0 -1 -1 -0 -0 0 1 1 -1 -1 -1 -0 -1 -1 -0 -0 -1 -1 nan
nan -0 -0 -0 -0 -0 -0 -0 -1 -1 -1 -1 -1 -1 -0 -0 -1 -1 -0 -0 -1 -1 -1 -1 -1 -0 -0 -0 0 1 2 1 1 0 0 0 1 0 -0 -0 -0 nan
nan -0 -0 -0 -0 -0 -0 -0 -0 -1 -1 -1 -1 -1 -1 -1 -1 -1 -1 -1 -1 -1 -1 -1 -1 -0 -0 -1 -1 -0 0 1 2 1 1 1 1 0 -0 0 0 nan
nan -0 -0 -0 -0 -0 -0 -0 -0 -0 -0 -1 -1 -1 -1 -1 -1 -1 -1 -1 -1 -2 -2 -2 -1 -0 -0 -1 -1 -1 -0 0 0 0 0 0 0 -0 -0 0 1 nan
nan -1 -1 -0 -0 -0 -0 -0 -0 -1 -0 -0 -1 -1 -0 -1 -1 -1 -1 -0 -0 -2 -3 -2 -1 -1 -1 -1 -1 -1 -1 -0 0 -0 -0 -0 -0 -0 -0 -0 0 nan
nan -1 -1 -1 -0 -0 -0 -0 -0 -0 -0 -0 -0 -0 -0 -0 -1 -1 -1 -1 0 -1 -2 -2 -1 -1 -1 -1 -1 -1 -1 -0 0 0 -1 -1 -0 -0 -0 0 1 nan
nan -1 -1 -1 -1 -1 -1 -1 -0 -0 -0 -0 -0 -1 -0 -0 -1 -0 -0 -1 -0 0 -2 -2 -1 -0 -1 -1 -1 -1 -0 -0 -1 -0 -1 -1 -1 -0 -1 -0 1 nan
nan -1 -1 -1 -1 -1 -1 -1 -1 -1 -0 -0 -0 -1 -1 -0 -1 -0 0 -0 -0 -0 -1 -2 -2 -1 -1 -1 -1 -1 -0 0 -1 -1 -1 -2 -1 -0 -0 -1 -1 nan
nan -0 -1 -1 -1 -1 -1 -1 -1 -1 -0 -0 -0 -1 -1 -0 -1 -1 0 1 0 -0 -0 -1 -2 -1 -1 -2 -1 -1 -0 1 0 -1 -2 -2 -2 -1 0 0 -0 nan
nan 0 0 -0 -1 -0 -0 -0 -1 -1 -0 -0 -0 -0 -1 -1 -0 -1 -1 0 0 -0 -0 -1 -2 -2 -1 -2 -2 -1 -0 1 1 -0 -1 -1 -1 -1 -1 0 1 nan
nan nan nan nan nan nan nan nan nan nan nan nan nan nan nan nan nan nan nan nan nan nan nan nan nan nan nan nan nan nan nan nan nan nan nan nan nan nan nan nan nan nan
Wind_Speed
26 27 28 29 29 29 29 28 28 28 28 29 30 31 32 32 33 34 35 35 35 36 36 36 37 37 37 37 37 37 37 37 36 34 34 34 34 34 33 33 31 31
27 27 28 29 28 28 28 27 28 28 28 29 30 31 33 33 34 34 35 36 36 37 37 37 37 37 37 37 37 38 38 38 37 36 36 35 35 34 34 34 33 33
28 28 28 28 28 28 28 27 27 28 29 29 30 32 34 34 35 35 35 36 37 37 37 37 37 37 37 37 37 38 38 38 38 37 37 37 36 35 35 35 35 35
30 30 29 28 28 28 28 27 27 28 29 30 31 33 34 35 36 36 36 36 36 37 37 36 37 36 36 36 37 38 38 38 38 38 38 38 37 37 36 35 36 36
31 31 31 30 29 28 28 28 28 28 30 31 32 33 34 35 36 36 36 37 37 37 37 37 37 37 37 37 37 38 38 38 38 37 38 39 38 37 37 36 37 37
33 32 32 31 31 30 29 29 29 30 32 33 34 35 35 36 36 36 37 37 38 38 38 38 38 38 37 37 38 38 38 38 38 37 38 39 39 38 38 38 38 38
34 34 33 33 33 32 31 31 31 33 34 35 36 36 37 37 37 37 37 38 38 39 39 39 39 38 38 38 39 39 39 39 39 39 39 39 39 39 38 38 38 39
34 34 34 34 34 33 33 33 34 35 36 37 38 38 38 38 39 39 39 39 39 39 39 39 39 39 38 38 39 39 39 39 39 39 40 40 40 40 39 38 39 40
34 34 34 34 34 34 34 34 35 36 37 38 39 39 39 39 39 40 40 40 40 40 40 40 40 39 39 39 39 40 40 40 39 39 40 40 40 40 39 38 39 40
34 34 34 34 35 35 35 35 36 37 38 38 39 39 40 40 40 40 40 41 41 41 41 41 41 40 40 40 40 40 41 41 40 40 40 40 40 40 39 39 39 40
35 35 35 35 35 35 36 36 37 37 38 39 39 40 40 40 40 40 41 41 41 42 42 42 41 41 41 41 40 40 41 41 41 41 40 39 39 39 38 37 37 38
36 36 36 36 36 36 37 38 38 38 39 39 39 40 40 40 40 40 40 41 42 42 42 42 41 41 41 41 41 41 41 41 40 40 39 39 38 37 35 34 34 36
36 36 36 37 37 37 38 39 39 39 40 40 40 40 41 41 41 41 41 41 42 42 41 42 42 42 42 42 42 41 41 40 39 38 38 37 36 35 33 33 34 36
37 37 37 37 38 38 39 39 40 41 41 41 41 41 41 41 41 42 42 42 42 42 42 42 42 42 42 42 42 41 40 38 37 36 36 35 35 35 35 36 37 39
37 37 37 38 38 39 40 40 41 41 42 42 42 42 42 42 42 42 43 43 42 42 42 42 42 42 42 41 41 40 38 38 37 36 37 37 38 39 41 42 42 43
37 38 38 39 39 40 40 41 41 41 42 42 42 42 42 42 42 42 42 42 43 43 43 42 42 42 41 40 38 36 36 37 37 38 39 40 43 44 44 45 45 46
38 39 39 39 40 40 41 41 41 41 42 42 42 42 42 41 41 42 42 42 42 43 43 43 43 41 40 38 36 32 31 32 36 39 40 42 43 44 45 45 45 46
38 39 39 40 40 40 41 41 41 41 42 42 42 42 42 42 41 41 42 42 42 43 43 43 42 41 38 36 32 29 27 30 34 39 41 41 43 43 44 44 45 46
39 39 40 40 40 40 41 41 41 41 41 42 43 43 42 42 42 42 42 42 42 42 43 43 42 40 36 32 29 28 28 30 33 37 39 41 42 42 42 43 45 47
39 40 40 41 41 41 41 41 41 42 42 42 43 43 43 43 43 43 43 43 42 41 42 43 41 37 33 30 28 28 29 31 33 37 39 40 41 42 43 45 47 49
39 40 41 41 41 41 42 41 42 42 42 43 43 43 43 43 43 43 43 43 41 40 40 41 38 33 30 29 29 29 30 32 34 36 37 38 40 42 44 47 49 50
39 40 41 41 41 41 41 41 42 42 42 42 43 43 44 43 43 43 43 42 40 38 37 38 36 32 29 29 30 30 31 33 35 36 38 40 42 44 47 49 51 52
38 39 40 41 41 41 41 41 41 42 42 42 43 44 44 44 44 44 42 40 39 36 34 36 36 33 31 31 30 30 31 33 36 39 42 45 46 48 50 52 53 52
38 38 39 40 40 40 40 41 41 41 41 41 42 43 44 43 43 43 41 38 36 34 33 35 37 35 32 32 31 30 31 34 39 43 46 48 51 52 53 54 54 53
39 39 39 39 40 40 40 40 40 40 40 40 40 42 43 43 41 41 40 37 34 33 33 35 37 36 34 32 31 30 30 35 41 45 48 52 55 56 55 53 50 48
39 39 39 39 39 40 40 40 39 39 40 40 40 41 41 41 39 38 38 36 33 33 34 35 36 37 35 33 31 31 32 36 41 47 51 55 57 57 55 51 44 39
Wind_Direction
324 323 322 322 322 322 322 321 319 317 315 313 312 312 312 312 312 312 312 312 312 311 311 311 311 310 310 309 309 308 306 305 303 302 299 297 294 293 291 289 287 284
327 326 325 324 323 323 322 320 318 315 314 312 311 310 310 310 311 311 311 311 311 310 310 310 309 309 309 308 308 306 305 304 304 303 301 298 296 294 292 290 288 284
330 329 328 326 325 323 322 320 317 314 312 311 311 310 310 311 311 311 311 310 309 309 309 308 308 308 308 308 307 305 304 303 303 303 301 299 297 295 293 290 288 285
331 331 330 328 326 324 322 320 317 314 313 312 312 312 312 312 312 311 311 310 309 308 308 308 308 308 307 307 306 304 303 302 302 302 300 299 298 297 295 292 289 286
332 332 331 330 328 326 323 320 318 315 314 314 313 313 313 312 312 312 312 311 311 310 310 309 309 308 308 307 306 304 303 302 301 301 299 298 298 297 295 293 290 287
333 332 332 330 329 328 325 322 319 317 317 316 315 315 314 314 314 314 314 313 313 312 312 312 311 310 310 309 306 305 304 303 302 301 299 297 297 296 295 294 292 289
333 332 331 330 329 328 326 323 321 319 320 319 318 318 318 317 317 317 316 315 315 314 314 314 313 312 311 310 307 306 305 304 303 302 300 299 298 296 295 295 293 291
332 331 330 329 328 327 326 325 322 321 321 320 320 320 320 320 319 319 318 317 316 316 315 314 313 312 311 309 307 306 305 305 304 303 301 300 299 297 296 296 293 290
331 330 329 328 328 327 326 325 323 323 322 321 321 320 320 320 319 319 318 317 316 315 314 314 313 312 311 309 308 307 306 304 303 302 301 300 299 297 296 296 293 291
331 330 330 329 328 328 327 326 324 323 322 321 321 320 319 319 319 319 318 317 316 315 314 314 312 311 310 308 308 306 305 304 303 302 300 299 297 296 296 295 293 291
333 332 331 330 330 329 328 326 324 323 322 321 321 320 319 319 319 318 317 316 316 315 314 313 312 311 309 307 307 306 304 303 302 301 300 298 296 295 294 293 292 290
335 334 332 331 331 329 328 326 325 324 322 322 321 320 319 319 318 317 316 315 314 314 313 312 311 309 307 307 306 305 303 302 301 300 299 297 294 293 291 291 291 291
335 333 332 332 330 329 327 325 325 324 323 323 322 321 320 319 318 317 316 315 314 313 312 311 309 308 306 306 305 305 304 302 301 299 296 294 292 291 291 292 294 296
334 333 332 331 329 328 326 326 325 325 324 324 323 323 321 320 319 318 316 315 314 313 312 310 309 307 306 306 305 305 304 302 300 299 297 296 296 296 297 298 299 298
333 332 331 330 329 327 326 326 325 325 324 324 323 323 322 320 319 317 316 315 314 313 312 310 307 306 306 307 307 307 306 305 303 303 302 302 301 301 300 300 299 298
333 332 331 330 328 327 326 326 325 324 324 324 323 322 321 320 318 317 316 316 315 313 311 309 307 307 307 308 308 307 305 301 298 297 297 296 296 296 294 294 294 293
333 332 330 329 328 327 326 326 325 324 324 324 324 323 321 320 318 317 317 316 315 313 311 310 308 308 309 309 307 305 301 297 294 294 294 293 292 293 292 291 290 288
332 331 329 328 328 327 326 326 325 325 325 325 325 324 322 321 319 319 318 317 316 313 312 311 310 310 311 309 305 303 301 299 298 298 297 295 293 292 291 290 289 287
332 330 329 328 328 327 326 326 326 326 327 326 326 325 323 322 321 320 319 318 317 315 313 312 311 312 312 308 304 304 303 300 299 297 295 294 294 293 292 292 293 293
331 330 329 328 328 328 327 327 327 327 328 328 327 326 325 324 323 322 321 320 319 318 315 312 312 313 313 309 307 307 304 302 301 298 296 295 296 298 298 297 297 296
331 330 328 328 328 328 327 328 328 328 329 328 327 327 326 325 325 323 322 321 320 319 317 313 313 316 315 311 311 310 307 305 303 302 301 301 300 300 300 299 298 297
332 329 328 328 328 328 328 328 329 328 329 329 328 327 327 326 325 324 323 322 321 321 320 315 314 317 317 313 313 311 309 308 309 309 309 308 306 304 302 301 299 297
332 330 329 328 328 328 328 328 329 329 329 329 329 328 329 328 326 325 324 324 323 324 325 320 316 319 320 316 314 313 313 315 316 316 315 312 310 308 306 303 300 296
333 331 329 329 329 329 329 328 329 329 329 330 330 330 329 328 328 326 324 325 325 327 329 325 321 321 321 318 316 316 319 322 321 319 317 314 312 312 309 305 300 296
333 331 330 330 330 330 329 329 329 329 329 331 331 331 330 329 329 328 324 325 328 330 330 330 327 325 323 322 321 321 323 326 323 319 317 315 314 314 313 311 306 298
333 331 331 331 331 330 330 330 330 330 331 332 332 332 331 331 332 330 326 327 331 332 331 333 332 329 328 327 327 327 327 329 326 321 318 316 315 314 314 313 309 300
Height
1504 1501 1498 1496 1493 1491 1488 1485 1483 1480 1478 1476 1474 1472 1470 1468 1466 1464 1461 1460 1458 1456 1454 1452 1449 1448 1446 1444 1442 1440 1438 1437 1436 1436 1435 1434 1433 1432 1431 1431 1430 1429
1502 1499 1496 1493 1491 1488 1486 1483 1480 1478 1476 1474 1472 1469 1467 1465 1463 1461 1459 1456 1454 1452 1450 1448 1446 1444 1442 1440 1438 1436 1434 1432 1431 1430 1429 1428 1427 1426 1426 1425 1424 1424
1499 1496 1493 1491 1488 1485 1483 1481 1478 1476 1474 1471 1469 1467 1464 1462 1459 1457 1455 1453 1450 1448 1446 1444 1442 1440 1438 1436 1434 1431 1429 1427 1426 1425 1423 1422 1421 1420 1420 1419 1418 1418
1495 1493 1490 1488 1485 1483 1480 1478 1476 1473 1471 1468 1466 1464 1461 1458 1455 1453 1451 1449 1446 1443 1441 1440 1437 1436 1433 1431 1429 1426 1425 1423 1421 1420 1418 1416 1415 1414 1414 1413 1412 1411
1492 1489 1487 1485 1482 1480 1477 1475 1473 1470 1468 1465 1463 1460 1457 1455 1452 1449 1446 1444 1441 1439 1437 1435 1433 1431 1429 1426 1424 1421 1419 1418 1416 1415 1413 1411 1410 1409 1408 1407 1405 1405
1489 1486 1484 1481 1479 1477 1474 1472 1469 1467 1464 1461 1459 1456 1454 1451 1448 1445 1442 1439 1437 1434 1432 1430 1428 1426 1424 1421 1419 1416 1414 1412 1411 1410 1407 1405 1404 1403 1402 1401 1399 1398
1486 1483 1481 1478 1476 1473 1471 1468 1466 1463 1460 1457 1454 1452 1449 1446 1443 1441 1438 1435 1432 1430 1427 1425 1423 1421 1419 1416 1413 1411 1409 1407 1405 1403 1401 1400 1398 1397 1396 1395 1393 1391
1484 1481 1478 1475 1473 1470 1468 1465 1462 1459 1457 1453 1450 1448 1445 1442 1439 1436 1434 1431 1428 1425 1423 1421 1418 1416 1414 1411 1408 1406 1404 1402 1400 1398 1395 1394 1392 1390 1390 1389 1387 1385
1481 1478 1475 1472 1470 1467 1464 1462 1459 1456 1453 1450 1447 1444 1441 1438 1435 1432 1429 1426 1424 1421 1419 1416 1413 1411 1408 1406 1403 1401 1398 1396 1394 1392 1390 1388 1386 1384 1383 1383 1381 1378
1478 1475 1472 1470 1467 1464 1461 1458 1456 1453 1450 1446 1443 1440 1437 1434 1431 1428 1425 1422 1419 1416 1413 1411 1408 1406 1403 1400 1398 1396 1393 1390 1388 1386 1384 1382 1380 1378 1377 1376 1374 1372
1475 1472 1469 1466 1463 1461 1458 1455 1452 1449 1446 1443 1440 1436 1433 1430 1427 1424 1421 1417 1414 1411 1408 1406 1403 1400 1397 1395 1393 1391 1387 1385 1382 1380 1378 1376 1374 1373 1371 1370 1368 1366
1472 1469 1466 1463 1460 1457 1454 1451 1448 1445 1442 1439 1436 1432 1429 1426 1423 1420 1417 1413 1410 1407 1404 1401 1398 1395 1392 1389 1387 1385 1382 1379 1377 1374 1372 1370 1368 1367 1366 1364 1363 1360
1469 1465 1463 1459 1456 1454 1450 1447 1444 1441 1438 1435 1431 1428 1424 1421 1418 1415 1412 1409 1405 1402 1399 1395 1392 1389 1386 1384 1381 1379 1376 1373 1371 1369 1366 1364 1362 1360 1360 1359 1357 1355
1466 1463 1460 1456 1453 1450 1447 1444 1440 1437 1434 1430 1427 1424 1420 1416 1413 1409 1406 1403 1400 1397 1394 1390 1387 1384 1381 1378 1375 1373 1370 1367 1365 1363 1360 1357 1356 1354 1353 1352 1351 1349
1463 1460 1457 1453 1450 1447 1443 1440 1436 1433 1430 1426 1423 1419 1416 1412 1409 1405 1401 1398 1395 1392 1388 1385 1381 1378 1376 1373 1370 1366 1364 1361 1358 1356 1353 1351 1349 1347 1346 1344 1344 1343
1460 1457 1453 1450 1447 1443 1440 1436 1433 1429 1426 1422 1419 1415 1412 1408 1404 1401 1397 1393 1389 1385 1382 1379 1376 1373 1370 1368 1365 1362 1359 1357 1354 1352 1350 1347 1344 1342 1341 1339 1338 1336
1457 1453 1450 1447 1443 1440 1436 1432 1429 1425 1421 1418 1414 1410 1407 1403 1399 1396 1392 1388 1384 1380 1376 1373 1370 1367 1365 1362 1360 1358 1356 1354 1351 1348 1346 1344 1341 1338 1336 1334 1333 1331
1453 1450 1446 1443 1440 1436 1432 1429 1425 1421 1417 1413 1409 1405 1402 1398 1394 1391 1387 1383 1379 1374 1370 1367 1363 1361 1360 1357 1354 1353 1352 1350 1347 1344 1341 1338 1335 1333 1330 1328 1326 1324
1450 1446 1443 1439 1436 1432 1428 1425 1421 1417 1413 1409 1404 1401 1397 1393 1389 1385 1381 1378 1374 1369 1365 1361 1358 1356 1354 1351 1349 1348 1347 1346 1343 1339 1335 1332 1329 1326 1324 1321 1319 1316
1447 1443 1439 1435 1432 1428 1424 1420 1416 1412 1409 1405 1400 1396 1392 1388 1384 1380 1376 1372 1369 1364 1360 1355 1352 1351 1348 1346 1344 1343 1342 1340 1337 1333 1329 1326 1323 1320 1317 1314 1311 1308
1444 1439 1435 1432 1428 1424 1420 1416 1412 1408 1404 1400 1396 1391 1387 1383 1379 1374 1370 1367 1363 1360 1355 1350 1347 1346 1344 1341 1340 1338 1336 1334 1331 1327 1323 1320 1317 1314 1311 1307 1304 1301
1441 1436 1432 1428 1424 1420 1416 1412 1408 1404 1400 1396 1391 1387 1383 1379 1374 1370 1366 1361 1358 1355 1350 1345 1342 1342 1340 1337 1335 1333 1330 1328 1324 1320 1317 1313 1310 1307 1303 1299 1296 1293
1438 1433 1429 1425 1421 1417 1412 1408 1405 1400 1396 1392 1387 1382 1378 1374 1369 1365 1361 1357 1353 1350 1347 1341 1337 1336 1335 1332 1330 1328 1325 1321 1318 1314 1310 1306 1302 1299 1295 1291 1286 1283
1434 1430 1426 1421 1417 1413 1409 1405 1401 1397 1393 1389 1384 1379 1374 1370 1366 1360 1357 1354 1350 1346 1343 1338 1333 1331 1330 1327 1325 1322 1319 1316 1312 1308 1304 1299 1295 1290 1286 1282 1277 1273
1431 1427 1422 1418 1414 1410 1406 1402 1398 1394 1390 1386 1382 1377 1371 1367 1363 1357 1352 1349 1347 1343 1340 1336 1331 1327 1325 1322 1319 1317 1314 1311 1308 1303 1298 1292 1286 1281 1276 1271 1267 1263
1428 1423 1419 1415 1411 1406 1402 1399 1395 1390 1386 1382 1378 1374 1369 1364 1360 1354 1348 1345 1343 1340 1337 1334 1329 1324 1320 1318 1315 1312 1309 1306 1303 1297 1291 1284 1278 1273 1267 1262 1259 1256